MEV-2

Last updated on Sun Apr 12 2026 00:02:55 GMT+0000 (Coordinated Universal Time)

1 46113U 20056B 26101.37788977 -.00000010 00000+0 00000+0 0 9994 2 46113 0.0457 54.5643 0001998 27.3710 252.7053 1.00271172 79918
UTC large
Height (km)
Speed (km/s)
/
Latitude / Longitude
Inclination (degrees)
Orbital Period (minutes)
Azimuth
Elevation
Range (km)
Doppler Factor

Next 0 passes for location: London (51.5072 / 0.1276)

Sorry there are no passes over London.
MEV-2